STARLINK-35844 (66880 NORAD) Tracking and Keplerian Element Data

This shows tracking and keplerian element data for the satellite.

Feedback or suggestion? Click here.




ElementValue
Catalog66880
NameSTARLINK-35844
Epoch Orbit363
Epoch Day354.25003472
Epoch Year2025
RAAN36.1421
Inclination53.1575
Eccentricity9.41E-05
Argument of Perigee67.3084
Mean Anonmoly158.6711
Mean Motion15.74228433
Decay Rate-0.00083886
L11 66880U 25283C 25354.25003472 -.00083886 00000+0 -57320-3 0 9994
L22 66880 53.1575 36.1421 0000941 67.3084 158.6711 15.74228433 3635



Live tracking and technical data element details for STARLINK-35844 (NORAD 66880). STARLINK-35844 can be tracked NOW for your location showing map with azimuth and elevation plus other details from your city location.







IsCatalogInMostPopularTable: catalog: 66880, numindb: 22
Update: records affected: 1



GetName: 66880 STARLINK-35844

Hit Count: updated at: Thu, 21 May 2026 11:44:50 GMT